Location: Unspecified
(0.0000°N, 0.0000°E)
Time: 18:43:13
(UTC+01:00)

Vanguard 1 Rocket - Visible Passes

Search period start: 28 March 2015 00:00
Search period end: 07 April 2015 01:00
Orbit: 656 x 4223 km, 34.3° (Epoch: 25 March)

Date Brightness Start Highest point End Pass type
(mag) Time Alt. Az. Time Alt. Az. Time Alt. Az.
28 Mar 11.6 00:49:24 10° SW 01:17:58 18° SE 01:24:55 10° ESE visible
28 Mar 10.8 03:35:25 31° SSW 03:46:06 42° SSE 04:03:08 10° E visible
28 Mar 9.8 05:56:08 10° SW 06:19:21 88° NW 06:31:20 10° NE visible
28 Mar 10.8 21:00:17 10° WSW 21:10:24 27° SSW 21:26:06 10° SSE visible
28 Mar 11.4 23:34:29 10° SW 00:12:12 - ESE 23:44:37 20° S visible
29 Mar 11.2 03:29:38 32° SSE 03:29:38 32° SSE 03:48:25 10° E visible
29 Mar 10.2 05:47:04 22° SW 06:05:33 68° SSE 06:20:11 10° ENE visible
29 Mar 10.2 20:47:58 10° W 20:56:21 34° SSW 21:10:57 10° SE visible
29 Mar 11.2 23:19:51 10° SW 23:31:12 20° S 23:37:19 18° SSE visible
30 Mar 11.6 01:53:47 10° SSW 02:23:50 19° SE 02:31:15 10° ESE visible
30 Mar 10.6 04:41:15 39° SSW 04:50:24 51° SSE 05:07:51 10° ENE visible
30 Mar 9.8 06:59:33 10° WSW 07:22:49 73° NW 07:35:01 10° NE visible
30 Mar 10.9 22:05:57 10° WSW 22:15:23 22° S 22:29:03 10° SSE visible
31 Mar 11.4 00:39:45 10° SSW 01:17:57 - ESE 00:47:12 18° S visible
31 Mar 11.0 03:35:23 38° SSE 03:35:23 38° SSE 03:53:49 10° E visible
31 Mar 10.1 05:52:47 29° SW 06:09:15 82° SE 06:24:10 10° ENE visible
31 Mar 10.5 20:53:05 10° WSW 21:01:01 26° SSW 21:13:36 10° SSE visible
31 Mar 11.3 23:25:46 10° SW 23:36:37 18° S 23:39:48 18° SSE visible
01 Apr 11.5 02:29:26 21° ESE 02:29:26 21° ESE 02:37:23 10° ESE visible
01 Apr 10.4 04:46:50 49° SSW 04:54:25 61° SSE 05:12:14 10° ENE visible
01 Apr 9.9 07:04:15 12° WSW 07:26:11 59° NW 07:38:31 10° NE visible
01 Apr 11.1 22:11:57 10° SW 22:20:32 18° S 22:32:17 10° SSE visible
02 Apr 11.4 00:44:21 10° SSW 01:23:23 - ESE 00:49:38 17° SSW visible
02 Apr 10.8 03:40:47 45° SE 03:40:47 45° SE 03:58:47 10° E visible
02 Apr 10.0 05:58:11 34° SW 06:12:45 84° NW 06:27:56 10° NE visible
02 Apr 10.7 20:58:41 10° SW 21:05:51 20° SSW 21:16:11 10° SSE visible
02 Apr 11.3 23:31:16 10° SSW 23:42:04 18° S 23:42:10 18° S visible
03 Apr 11.4 02:34:39 24° ESE 02:34:39 24° ESE 02:43:09 10° E visible
03 Apr 10.3 04:52:02 60° SSW 04:58:08 73° SE 05:16:19 10° ENE visible
03 Apr 10.1 07:09:25 13° WSW 07:29:34 48° NW 07:41:53 10° NNE visible
03 Apr 11.1 22:18:07 10° SSW 22:25:49 15° S 22:34:43 11° SSE visible
04 Apr 11.4 00:48:24 10° SSW 01:28:24 - ESE 00:51:59 15° SSW visible
04 Apr 10.7 03:45:47 53° SE 03:45:47 53° SE 04:03:21 10° ENE visible
04 Apr 10.1 06:03:09 37° WSW 06:16:06 71° NW 06:31:30 10° NE visible
04 Apr 10.9 21:04:51 10° SW 21:10:51 15° S 21:18:43 10° SSE visible
04 Apr 11.3 23:36:07 10° SSW 23:44:31 18° S 23:44:31 18° S visible
05 Apr 11.3 02:39:25 27° ESE 02:39:25 27° ESE 02:48:27 10° E visible
05 Apr 10.2 04:56:46 69° SW 05:01:38 86° SE 05:20:09 10° NE visible
05 Apr 10.4 07:14:09 13° W 07:33:02 39° NW 07:45:08 10° NNE visible
05 Apr 11.2 22:24:02 10° SSW 22:31:09 14° S 22:37:03 12° SSE visible
06 Apr 11.4 00:52:01 10° SSW 01:32:57 - E 00:54:19 14° SSW visible
06 Apr 10.5 03:50:18 61° ESE 03:50:18 61° ESE 04:07:35 10° ENE visible
06 Apr 10.2 06:07:39 37° W 06:19:25 59° NW 06:34:55 10° NE visible
06 Apr 11.0 21:11:40 10° SSW 21:15:59 12° S 21:21:12 10° SSE visible
06 Apr 11.2 23:40:18 10° SSW 23:46:53 18° S 23:46:53 18° S visible
